| time (UTC) | temp C | wind direction | speed KPH | gust KPH | rain 1hr cm | rain 24hr cm | rain mn cm | humidity % | barometer mb |
| 20260506112407 | 17 | 256 | 0.0 | 0.0 | 0.00 | 0.00 | 0.00 | 84 | 1019.8 |
| 20260506111904 | 17 | 257 | 0.0 | 0.0 | 0.00 | 0.00 | 0.00 | 84 | 1019.9 |
| 20260506111402 | 17 | 175 | 0.0 | 0.0 | 0.00 | 0.00 | 0.00 | 84 | 1019.8 |
| 20260506110859 | 17 | 255 | 0.0 | 0.0 | 0.00 | 0.00 | 0.00 | 84 | 1019.8 |
| 20260506110356 | 17 | 207 | 0.0 | 0.0 | 0.00 | 0.00 | 0.00 | 84 | 1019.6 |
| 20260506105853 | 17 | 255 | 0.0 | 0.0 | 0.00 | 0.00 | 0.00 | 84 | 1019.8 |
| 20260506105349 | 17 | 208 | 0.0 | 0.0 | 0.00 | 0.00 | 0.00 | 84 | 1019.6 |
| 20260506104847 | 17 | 264 | 0.0 | 0.0 | 0.00 | 0.00 | 0.00 | 84 | 1019.3 |
| 20260506104344 | 17 | 160 | 3.2 | 3.2 | 0.00 | 0.00 | 0.00 | 84 | 1019.1 |
| 20260506103842 | 17 | 237 | 4.8 | 8.0 | 0.00 | 0.00 | 0.00 | 84 | 1019.5 |
| 20260506103339 | 17 | 249 | 0.0 | 0.0 | 0.00 | 0.00 | 0.00 | 83 | 1019.0 |
| 20260506102836 | 17 | 255 | 0.0 | 0.0 | 0.00 | 0.00 | 0.00 | 83 | 1019.1 |
| 20260506102334 | 17 | 262 | 0.0 | 0.0 | 0.00 | 0.00 | 0.00 | 83 | 1019.1 |
| 20260506101831 | 17 | 255 | 0.0 | 0.0 | 0.00 | 0.00 | 0.00 | 83 | 1018.8 |
| 20260506101327 | 17 | 255 | 0.0 | 0.0 | 0.00 | 0.00 | 0.00 | 82 | 1018.6 |
| 20260506100825 | 17 | 218 | 0.0 | 0.0 | 0.00 | 0.00 | 0.00 | 82 | 1018.5 |
| 20260506100324 | 17 | 257 | 0.0 | 0.0 | 0.00 | 0.00 | 0.00 | 82 | 1018.6 |
| 20260506095822 | 17 | 228 | 0.0 | 0.0 | 0.00 | 0.00 | 0.00 | 82 | 1018.5 |
| 20260506095318 | 17 | 245 | 0.0 | 0.0 | 0.00 | 0.00 | 0.00 | 81 | 1018.6 |
| 20260506094815 | 17 | 177 | 4.8 | 4.8 | 0.00 | 0.00 | 0.00 | 81 | 1018.7 |
| 20260506094314 | 17 | 263 | 0.0 | 0.0 | 0.00 | 0.00 | 0.00 | 81 | 1018.6 |
| 20260506093812 | 17 | 262 | 0.0 | 0.0 | 0.00 | 0.00 | 0.00 | 80 | 1018.7 |
| 20260506093308 | 17 | 188 | 0.0 | 0.0 | 0.00 | 0.00 | 0.00 | 80 | 1018.6 |
| 20260506092807 | 17 | 260 | 0.0 | 0.0 | 0.00 | 0.00 | 0.00 | 80 | 1018.5 |
| 20260506092306 | 17 | 267 | 0.0 | 0.0 | 0.00 | 0.00 | 0.00 | 80 | 1018.4 |
| 20260506091801 | 17 | 267 | 0.0 | 0.0 | 0.00 | 0.00 | 0.00 | 80 | 1018.2 |
| 20260506091258 | 17 | 267 | 0.0 | 0.0 | 0.00 | 0.00 | 0.00 | 79 | 1018.2 |
| 20260506090756 | 17 | 267 | 0.0 | 0.0 | 0.00 | 0.00 | 0.00 | 79 | 1018.2 |
| 20260506090253 | 17 | 267 | 0.0 | 0.0 | 0.00 | 0.00 | 0.00 | 79 | 1018.3 |
| 20260506085750 | 17 | 265 | 0.0 | 0.0 | 0.00 | 0.00 | 0.00 | 79 | 1018.5 |
| 20260506085246 | 17 | 137 | 0.0 | 0.0 | 0.00 | 0.00 | 0.00 | 78 | 1018.4 |
| 20260506084743 | 17 | 163 | 0.0 | 0.0 | 0.00 | 0.00 | 0.00 | 78 | 1018.5 |
| 20260506084239 | 17 | 250 | 0.0 | 0.0 | 0.00 | 0.00 | 0.00 | 78 | 1018.2 |
| 20260506083736 | 17 | 210 | 0.0 | 0.0 | 0.00 | 0.00 | 0.00 | 78 | 1018.3 |
| 20260506083234 | 17 | 268 | 0.0 | 0.0 | 0.00 | 0.00 | 0.00 | 77 | 1018.5 |
| 20260506082731 | 17 | 240 | 0.0 | 0.0 | 0.00 | 0.00 | 0.00 | 77 | 1018.3 |
| 20260506082226 | 17 | 258 | 0.0 | 0.0 | 0.00 | 0.00 | 0.00 | 76 | 1018.1 |
| 20260506081724 | 17 | 202 | 0.0 | 0.0 | 0.00 | 0.00 | 0.00 | 76 | 1018.3 |
| 20260506081221 | 17 | 212 | 0.0 | 0.0 | 0.00 | 0.00 | 0.00 | 75 | 1018.3 |
| 20260506080720 | 17 | 243 | 0.0 | 0.0 | 0.00 | 0.00 | 0.00 | 74 | 1018.4 |
| 20260506080216 | 17 | 243 | 0.0 | 0.0 | 0.00 | 0.00 | 0.00 | 74 | 1018.8 |
| 20260506073200 | 17 | 259 | 0.0 | 0.0 | 0.00 | 0.00 | 0.00 | 69 | 1018.5 |
| 20260506072656 | 17 | 259 | 0.0 | 0.0 | 0.00 | 0.00 | 0.00 | 69 | 1018.7 |
| 20260506072154 | 17 | 260 | 0.0 | 0.0 | 0.00 | 0.00 | 0.00 | 69 | 1018.8 |
| 20260506071652 | 17 | 242 | 0.0 | 0.0 | 0.00 | 0.00 | 0.00 | 68 | 1019.0 |
| 20260506071149 | 17 | 266 | 0.0 | 0.0 | 0.00 | 0.00 | 0.00 | 68 | 1019.4 |
| 20260506070646 | 17 | 266 | 0.0 | 0.0 | 0.00 | 0.00 | 0.00 | 68 | 1019.3 |
| 20260506070143 | 17 | 259 | 0.0 | 0.0 | 0.00 | 0.00 | 0.00 | 68 | 1019.0 |
| 20260506062115 | 17 | 266 | 0.0 | 0.0 | 0.00 | 0.00 | 0.00 | 63 | 1019.3 |
| 20260506061610 | 18 | 266 | 0.0 | 0.0 | 0.00 | 0.00 | 0.00 | 63 | 1019.6 |
| 20260506061109 | 17 | 266 | 0.0 | 0.0 | 0.00 | 0.00 | 0.00 | 62 | 1019.4 |
| 20260506060606 | 17 | 266 | 0.0 | 0.0 | 0.00 | 0.00 | 0.00 | 62 | 1019.3 |
| 20260506051035 | 18 | 268 | 0.0 | 0.0 | 0.00 | 0.00 | 0.00 | 58 | 1018.9 |
| 20260506050533 | 18 | 268 | 0.0 | 0.0 | 0.00 | 0.00 | 0.00 | 58 | 1018.6 |
| 20260506045023 | 18 | 312 | 0.0 | 0.0 | 0.00 | 0.00 | 0.00 | 56 | 1019.0 |
| 20260506044521 | 19 | 218 | 0.0 | 0.0 | 0.00 | 0.00 | 0.00 | 55 | 1019.4 |
| 20260506044018 | 19 | 239 | 0.0 | 0.0 | 0.00 | 0.00 | 0.00 | 55 | 1019.4 |
| 20260506043515 | 19 | 266 | 0.0 | 0.0 | 0.00 | 0.00 | 0.00 | 55 | 1019.4 |
| 20260506043013 | 19 | 265 | 0.0 | 0.0 | 0.00 | 0.00 | 0.00 | 55 | 1019.6 |
| 20260506042512 | 18 | 269 | 0.0 | 0.0 | 0.00 | 0.00 | 0.00 | 55 | 1019.0 |
| 20260506042010 | 18 | 270 | 0.0 | 0.0 | 0.00 | 0.00 | 0.00 | 55 | 1019.1 |
| 20260506041508 | 19 | 272 | 0.0 | 0.0 | 0.00 | 0.00 | 0.00 | 55 | 1018.9 |
| 20260506041004 | 19 | 239 | 0.0 | 0.0 | 0.00 | 0.00 | 0.00 | 55 | 1018.9 |
| 20260506040502 | 19 | 241 | 0.0 | 3.2 | 0.00 | 0.00 | 0.00 | 55 | 1018.9 |
| 20260506035958 | 19 | 269 | 0.0 | 0.0 | 0.00 | 0.00 | 0.00 | 55 | 1018.9 |
| 20260506035455 | 19 | 245 | 0.0 | 0.0 | 0.00 | 0.00 | 0.00 | 54 | 1018.8 |
| 20260506034951 | 20 | 269 | 0.0 | 0.0 | 0.00 | 0.00 | 0.00 | 53 | 1019.1 |
| 20260506034449 | 20 | 233 | 0.0 | 0.0 | 0.00 | 0.00 | 0.00 | 53 | 1019.1 |
| 20260506033946 | 20 | 269 | 0.0 | 0.0 | 0.00 | 0.00 | 0.00 | 53 | 1019.3 |
| 20260506033444 | 20 | 265 | 0.0 | 0.0 | 0.00 | 0.00 | 0.00 | 53 | 1019.3 |
| 20260506032940 | 20 | 139 | 0.0 | 0.0 | 0.00 | 0.00 | 0.00 | 52 | 1019.4 |
| 20260506032437 | 20 | 138 | 1.6 | 3.2 | 0.00 | 0.00 | 0.00 | 52 | 1019.3 |
| 20260506031934 | 20 | 138 | 0.0 | 0.0 | 0.00 | 0.00 | 0.00 | 51 | 1019.4 |
| 20260506031431 | 20 | 272 | 0.0 | 0.0 | 0.00 | 0.00 | 0.00 | 51 | 1019.3 |
| 20260506030929 | 20 | 262 | 0.0 | 0.0 | 0.00 | 0.00 | 0.00 | 51 | 1019.3 |
| 20260506030427 | 20 | 271 | 0.0 | 0.0 | 0.00 | 0.00 | 0.00 | 51 | 1019.1 |
| 20260506025923 | 20 | 253 | 0.0 | 0.0 | 0.00 | 0.00 | 0.00 | 50 | 1019.5 |
| 20260506025420 | 20 | 272 | 0.0 | 0.0 | 0.00 | 0.00 | 0.00 | 50 | 1019.3 |
| 20260506024917 | 20 | 271 | 0.0 | 0.0 | 0.00 | 0.00 | 0.00 | 50 | 1019.4 |
| 20260506024414 | 20 | 257 | 0.0 | 0.0 | 0.00 | 0.00 | 0.00 | 50 | 1019.3 |
| 20260506023909 | 20 | 274 | 0.0 | 3.2 | 0.00 | 0.00 | 0.00 | 50 | 1019.1 |
| 20260506023407 | 21 | 226 | 1.6 | 3.2 | 0.00 | 0.00 | 0.00 | 49 | 1019.3 |
| 20260506022903 | 21 | 274 | 0.0 | 0.0 | 0.00 | 0.00 | 0.00 | 49 | 1019.1 |
| 20260506022401 | 21 | 175 | 1.6 | 3.2 | 0.00 | 0.00 | 0.00 | 48 | 1019.3 |
| 20260506021859 | 21 | 260 | 0.0 | 0.0 | 0.00 | 0.00 | 0.00 | 48 | 1019.3 |
| 20260506021355 | 21 | 262 | 0.0 | 0.0 | 0.00 | 0.00 | 0.00 | 47 | 1018.9 |
| 20260506020852 | 21 | 264 | 0.0 | 0.0 | 0.00 | 0.00 | 0.00 | 47 | 1019.1 |
| 20260506020351 | 21 | 242 | 0.0 | 0.0 | 0.00 | 0.00 | 0.00 | 46 | 1019.1 |
| 20260506015847 | 21 | 260 | 0.0 | 0.0 | 0.00 | 0.00 | 0.00 | 46 | 1018.9 |
| 20260506015345 | 21 | 260 | 0.0 | 0.0 | 0.00 | 0.00 | 0.00 | 46 | 1018.8 |
| 20260506014842 | 21 | 244 | 0.0 | 0.0 | 0.00 | 0.00 | 0.00 | 46 | 1018.7 |
| 20260506014338 | 21 | 183 | 3.2 | 4.8 | 0.00 | 0.00 | 0.00 | 45 | 1018.8 |
| 20260506013835 | 21 | 249 | 3.2 | 4.8 | 0.00 | 0.00 | 0.00 | 45 | 1018.6 |
| 20260506013333 | 22 | 260 | 0.0 | 0.0 | 0.00 | 0.00 | 0.00 | 45 | 1018.8 |
| 20260506012829 | 22 | 268 | 0.0 | 0.0 | 0.00 | 0.00 | 0.00 | 44 | 1019.0 |
| 20260506012326 | 22 | 269 | 0.0 | 0.0 | 0.00 | 0.00 | 0.00 | 44 | 1019.0 |
| 20260506011823 | 22 | 227 | 3.2 | 3.2 | 0.00 | 0.00 | 0.00 | 43 | 1018.8 |
| 20260506011320 | 22 | 264 | 0.0 | 0.0 | 0.00 | 0.00 | 0.00 | 43 | 1018.9 |
| 20260506010817 | 22 | 234 | 0.0 | 0.0 | 0.00 | 0.00 | 0.00 | 43 | 1018.5 |
| 20260506010315 | 22 | 227 | 1.6 | 3.2 | 0.00 | 0.00 | 0.00 | 43 | 1018.7 |
| 20260506005812 | 22 | 260 | 0.0 | 0.0 | 0.00 | 0.00 | 0.00 | 42 | 1018.9 |
| 20260506005309 | 22 | 240 | 0.0 | 0.0 | 0.00 | 0.00 | 0.00 | 42 | 1019.0 |
| 20260506004805 | 22 | 258 | 0.0 | 0.0 | 0.00 | 0.00 | 0.00 | 42 | 1019.0 |
| 20260506004303 | 22 | 244 | 0.0 | 0.0 | 0.00 | 0.00 | 0.00 | 41 | 1019.0 |
| 20260506003759 | 23 | 256 | 0.0 | 0.0 | 0.00 | 0.00 | 0.00 | 41 | 1019.0 |
| 20260506003255 | 23 | 228 | 3.2 | 3.2 | 0.00 | 0.00 | 0.00 | 41 | 1019.0 |
| 20260506002751 | 23 | 256 | 1.6 | 3.2 | 0.00 | 0.00 | 0.00 | 41 | 1019.0 |
| 20260506002247 | 23 | 188 | 1.6 | 4.8 | 0.00 | 0.00 | 0.00 | 41 | 1018.8 |
| 20260506001743 | 23 | 256 | 3.2 | 3.2 | 0.00 | 0.00 | 0.00 | 41 | 1019.1 |
| 20260506001241 | 23 | 259 | 0.0 | 0.0 | 0.00 | 0.00 | 0.00 | 40 | 1018.7 |
| 20260506000738 | 23 | 263 | 0.0 | 0.0 | 0.00 | 0.00 | 0.00 | 41 | 1018.9 |
| 20260506000235 | 23 | 253 | 3.2 | 3.2 | 0.00 | 0.00 | 0.00 | 41 | 1018.9 |
| 20260505235732 | 23 | 256 | 0.0 | 3.2 | 0.00 | 0.00 | 0.00 | 40 | 1018.8 |
| 20260505235230 | 23 | 240 | 1.6 | 3.2 | 0.00 | 0.00 | 0.00 | 39 | 1018.8 |
| 20260505234726 | 24 | 239 | 0.0 | 0.0 | 0.00 | 0.00 | 0.00 | 39 | 1018.7 |
| 20260505234224 | 24 | 252 | 4.8 | 8.0 | 0.00 | 0.00 | 0.00 | 38 | 1018.5 |
| 20260505233720 | 24 | 272 | 3.2 | 3.2 | 0.00 | 0.00 | 0.00 | 39 | 1018.7 |
| 20260505233218 | 25 | 200 | 3.2 | 4.8 | 0.00 | 0.00 | 0.00 | 39 | 1018.6 |
| 20260505232715 | 25 | 222 | 4.8 | 4.8 | 0.00 | 0.00 | 0.00 | 38 | 1018.6 |
| 20260505232213 | 25 | 274 | 3.2 | 3.2 | 0.00 | 0.00 | 0.00 | 38 | 1018.7 |
| 20260505231709 | 25 | 270 | 3.2 | 3.2 | 0.00 | 0.00 | 0.00 | 38 | 1018.6 |
| 20260505231208 | 25 | 246 | 4.8 | 8.0 | 0.00 | 0.00 | 0.00 | 37 | 1018.8 |
| 20260505230706 | 25 | 247 | 4.8 | 4.8 | 0.00 | 0.00 | 0.00 | 37 | 1018.5 |
| 20260505230202 | 25 | 243 | 6.4 | 8.0 | 0.00 | 0.00 | 0.00 | 37 | 1018.5 |
| 20260505225659 | 25 | 247 | 4.8 | 4.8 | 0.00 | 0.00 | 0.00 | 36 | 1018.5 |
| 20260505225155 | 25 | 246 | 3.2 | 3.2 | 0.00 | 0.00 | 0.00 | 37 | 1018.5 |
| 20260505224651 | 25 | 248 | 3.2 | 3.2 | 0.00 | 0.00 | 0.00 | 36 | 1018.5 |
| 20260505224149 | 25 | 245 | 6.4 | 8.0 | 0.00 | 0.00 | 0.00 | 35 | 1018.4 |
| 20260505223646 | 25 | 204 | 4.8 | 8.0 | 0.00 | 0.00 | 0.00 | 34 | 1018.6 |
| 20260505223142 | 25 | 164 | 0.0 | 3.2 | 0.00 | 0.00 | 0.00 | 33 | 1018.6 |
| 20260505222632 | 25 | 172 | 3.2 | 4.8 | 0.00 | 0.00 | 0.00 | 33 | 1018.3 |
| 20260505222129 | 25 | 233 | 8.0 | 11.3 | 0.00 | 0.00 | 0.00 | 33 | 1018.2 |
| 20260505221626 | 26 | 248 | 6.4 | 11.3 | 0.00 | 0.00 | 0.00 | 32 | 1018.2 |
| 20260505221123 | 26 | 226 | 4.8 | 4.8 | 0.00 | 0.00 | 0.00 | 33 | 1018.4 |
| 20260505220620 | 26 | 266 | 1.6 | 3.2 | 0.00 | 0.00 | 0.00 | 32 | 1018.1 |
| 20260505220118 | 26 | 116 | 3.2 | 4.8 | 0.00 | 0.00 | 0.00 | 34 | 1018.3 |
| 20260505215615 | 26 | 278 | 0.0 | 0.0 | 0.00 | 0.00 | 0.00 | 33 | 1018.6 |
| 20260505215113 | 26 | 141 | 9.7 | 11.3 | 0.00 | 0.00 | 0.00 | 33 | 1018.4 |
| 20260505214611 | 26 | 268 | 0.0 | 0.0 | 0.00 | 0.00 | 0.00 | 31 | 1018.6 |
| 20260505214108 | 26 | 78 | 3.2 | 4.8 | 0.00 | 0.00 | 0.00 | 31 | 1018.3 |
| 20260505213605 | 26 | 167 | 0.0 | 0.0 | 0.00 | 0.00 | 0.00 | 32 | 1018.5 |
| 20260505213102 | 26 | 240 | 3.2 | 4.8 | 0.00 | 0.00 | 0.00 | 32 | 1018.9 |
| 20260505212558 | 26 | 224 | 4.8 | 4.8 | 0.00 | 0.00 | 0.00 | 32 | 1018.6 |
| 20260505212056 | 26 | 296 | 1.6 | 3.2 | 0.00 | 0.00 | 0.00 | 32 | 1018.5 |
| 20260505211552 | 26 | 272 | 0.0 | 0.0 | 0.00 | 0.00 | 0.00 | 33 | 1018.5 |
| 20260505211049 | 26 | 194 | 4.8 | 4.8 | 0.00 | 0.00 | 0.00 | 31 | 1018.6 |
| 20260505210546 | 26 | 58 | 4.8 | 8.0 | 0.00 | 0.00 | 0.00 | 32 | 1018.5 |
| 20260505210043 | 26 | 274 | 0.0 | 3.2 | 0.00 | 0.00 | 0.00 | 34 | 1018.6 |
| 20260505205541 | 26 | 288 | 4.8 | 8.0 | 0.00 | 0.00 | 0.00 | 33 | 1018.6 |
| 20260505205038 | 26 | 210 | 4.8 | 8.0 | 0.00 | 0.00 | 0.00 | 34 | 1018.7 |
| 20260505204535 | 26 | 198 | 3.2 | 4.8 | 0.00 | 0.00 | 0.00 | 34 | 1018.8 |
| 20260505204033 | 26 | 209 | 3.2 | 3.2 | 0.00 | 0.00 | 0.00 | 34 | 1018.8 |
| 20260505203529 | 26 | 199 | 4.8 | 8.0 | 0.00 | 0.00 | 0.00 | 36 | 1019.1 |
| 20260505203026 | 26 | 179 | 6.4 | 11.3 | 0.00 | 0.00 | 0.00 | 34 | 1019.0 |
| 20260505202522 | 26 | 245 | 4.8 | 8.0 | 0.00 | 0.00 | 0.00 | 34 | 1019.3 |
| 20260505202018 | 26 | 238 | 4.8 | 8.0 | 0.00 | 0.00 | 0.00 | 34 | 1018.9 |
| 20260505201516 | 26 | 178 | 4.8 | 4.8 | 0.00 | 0.00 | 0.00 | 33 | 1019.0 |
| 20260505201013 | 26 | 272 | 1.6 | 4.8 | 0.00 | 0.00 | 0.00 | 33 | 1019.1 |
| 20260505200511 | 26 | 214 | 11.3 | 14.5 | 0.00 | 0.00 | 0.00 | 34 | 1019.3 |
| 20260505200008 | 26 | 172 | 0.0 | 3.2 | 0.00 | 0.00 | 0.00 | 36 | 1019.4 |
| 20260505195504 | 26 | 141 | 4.8 | 8.0 | 0.00 | 0.00 | 0.00 | 35 | 1019.6 |
| 20260505195001 | 26 | 271 | 6.4 | 11.3 | 0.00 | 0.00 | 0.00 | 35 | 1019.5 |
| 20260505194459 | 26 | 135 | 8.0 | 11.3 | 0.00 | 0.00 | 0.00 | 32 | 1019.8 |
| 20260505193958 | 26 | 136 | 4.8 | 4.8 | 0.00 | 0.00 | 0.00 | 35 | 1019.6 |
| 20260505193456 | 26 | 258 | 1.6 | 3.2 | 0.00 | 0.00 | 0.00 | 35 | 1019.7 |
| 20260505192947 | 25 | 127 | 9.7 | 11.3 | 0.00 | 0.00 | 0.00 | 33 | 1019.7 |
| 20260505192446 | 25 | 358 | 3.2 | 8.0 | 0.00 | 0.00 | 0.00 | 35 | 1019.8 |
| 20260505191943 | 25 | 251 | 4.8 | 4.8 | 0.00 | 0.00 | 0.00 | 36 | 1019.6 |
| 20260505191442 | 25 | 235 | 3.2 | 4.8 | 0.00 | 0.00 | 0.00 | 35 | 1019.7 |
| 20260505190938 | 25 | 76 | 4.8 | 8.0 | 0.00 | 0.00 | 0.00 | 36 | 1019.7 |
| 20260505190433 | 25 | 213 | 8.0 | 11.3 | 0.00 | 0.00 | 0.00 | 36 | 1019.9 |
| 20260505185929 | 25 | 157 | 3.2 | 4.8 | 0.00 | 0.00 | 0.00 | 36 | 1020.1 |
| 20260505185427 | 25 | 228 | 4.8 | 4.8 | 0.00 | 0.00 | 0.00 | 37 | 1020.1 |
| 20260505184922 | 25 | 256 | 3.2 | 4.8 | 0.00 | 0.00 | 0.00 | 38 | 1020.4 |
| 20260505184420 | 25 | 287 | 0.0 | 0.0 | 0.00 | 0.00 | 0.00 | 38 | 1020.2 |
| 20260505183916 | 25 | 245 | 0.0 | 3.2 | 0.00 | 0.00 | 0.00 | 38 | 1020.4 |
| 20260505183413 | 24 | 194 | 3.2 | 4.8 | 0.00 | 0.00 | 0.00 | 40 | 1020.5 |
| 20260505182910 | 25 | 243 | 4.8 | 4.8 | 0.00 | 0.00 | 0.00 | 39 | 1020.5 |
| 20260505182407 | 25 | 202 | 0.0 | 0.0 | 0.00 | 0.00 | 0.00 | 39 | 1020.5 |
| 20260505181903 | 25 | 245 | 0.0 | 0.0 | 0.00 | 0.00 | 0.00 | 40 | 1020.4 |
| 20260505181400 | 25 | 153 | 4.8 | 8.0 | 0.00 | 0.00 | 0.00 | 38 | 1020.8 |
| 20260505180857 | 25 | 197 | 8.0 | 11.3 | 0.00 | 0.00 | 0.00 | 36 | 1021.0 |
| 20260505180353 | 25 | 227 | 0.0 | 0.0 | 0.00 | 0.00 | 0.00 | 38 | 1020.9 |
| 20260505175850 | 25 | 275 | 1.6 | 4.8 | 0.00 | 0.00 | 0.00 | 39 | 1020.8 |
| 20260505175347 | 25 | 195 | 6.4 | 11.3 | 0.00 | 0.00 | 0.00 | 39 | 1021.3 |
| 20260505174843 | 25 | 238 | 3.2 | 4.8 | 0.00 | 0.00 | 0.00 | 40 | 1021.1 |
| 20260505174341 | 24 | 107 | 4.8 | 4.8 | 0.00 | 0.00 | 0.00 | 40 | 1021.2 |
| 20260505173836 | 24 | 173 | 8.0 | 11.3 | 0.00 | 0.00 | 0.00 | 40 | 1021.3 |
| 20260505173333 | 24 | 256 | 4.8 | 4.8 | 0.00 | 0.00 | 0.00 | 40 | 1021.4 |
| 20260505172830 | 25 | 235 | 3.2 | 4.8 | 0.00 | 0.00 | 0.00 | 38 | 1021.2 |
| 20260505172328 | 23 | 272 | 4.8 | 4.8 | 0.00 | 0.00 | 0.00 | 40 | 1021.2 |
| 20260505171827 | 24 | 267 | 6.4 | 8.0 | 0.00 | 0.00 | 0.00 | 41 | 1021.3 |
| 20260505171325 | 23 | 111 | 8.0 | 11.3 | 0.00 | 0.00 | 0.00 | 40 | 1021.5 |
| 20260505170821 | 23 | 171 | 4.8 | 4.8 | 0.00 | 0.00 | 0.00 | 40 | 1021.4 |
| 20260505170318 | 23 | 191 | 3.2 | 11.3 | 0.00 | 0.00 | 0.00 | 42 | 1021.5 |
| 20260505165813 | 23 | 178 | 3.2 | 4.8 | 0.00 | 0.00 | 0.00 | 42 | 1021.6 |
| 20260505165309 | 23 | 188 | 4.8 | 8.0 | 0.00 | 0.00 | 0.00 | 42 | 1021.8 |
| 20260505164805 | 23 | 98 | 4.8 | 8.0 | 0.00 | 0.00 | 0.00 | 42 | 1021.4 |
| 20260505164302 | 23 | 224 | 4.8 | 8.0 | 0.00 | 0.00 | 0.00 | 43 | 1021.6 |
| 20260505163800 | 23 | 241 | 6.4 | 8.0 | 0.00 | 0.00 | 0.00 | 43 | 1021.5 |
| 20260505163259 | 23 | 189 | 3.2 | 4.8 | 0.00 | 0.00 | 0.00 | 45 | 1021.5 |
| 20260505162756 | 23 | 211 | 4.8 | 4.8 | 0.00 | 0.00 | 0.00 | 45 | 1021.5 |
| 20260505162253 | 23 | 248 | 0.0 | 3.2 | 0.00 | 0.00 | 0.00 | 44 | 1021.5 |
| 20260505161750 | 22 | 227 | 4.8 | 4.8 | 0.00 | 0.00 | 0.00 | 47 | 1021.5 |
| 20260505161247 | 23 | 220 | 6.4 | 11.3 | 0.00 | 0.00 | 0.00 | 47 | 1021.6 |
| 20260505160744 | 22 | 251 | 1.6 | 3.2 | 0.00 | 0.00 | 0.00 | 48 | 1021.8 |
| 20260505160242 | 22 | 259 | 3.2 | 4.8 | 0.00 | 0.00 | 0.00 | 48 | 1021.5 |
| 20260505153221 | 22 | 211 | 3.2 | 3.2 | 0.00 | 0.00 | 0.00 | 49 | 1022.2 |
| 20260505152718 | 22 | 221 | 0.0 | 0.0 | 0.00 | 0.00 | 0.00 | 54 | 1022.1 |
| 20260505152214 | 21 | 248 | 4.8 | 4.8 | 0.00 | 0.00 | 0.00 | 56 | 1022.3 |
| 20260505151709 | 21 | 110 | 0.0 | 0.0 | 0.00 | 0.00 | 0.00 | 59 | 1021.8 |
| 20260505151207 | 21 | 175 | 4.8 | 4.8 | 0.00 | 0.00 | 0.00 | 60 | 1021.8 |
| 20260505150703 | 21 | 259 | 4.8 | 4.8 | 0.00 | 0.00 | 0.00 | 60 | 1022.1 |
| 20260505150200 | 21 | 240 | 0.0 | 0.0 | 0.00 | 0.00 | 0.00 | 60 | 1021.9 |
| 20260505140633 | 18 | 259 | 0.0 | 0.0 | 0.00 | 0.00 | 0.00 | 65 | 1021.4 |
| 20260505140130 | 18 | 108 | 0.0 | 0.0 | 0.00 | 0.00 | 0.00 | 63 | 1021.3 |
| 20260505124544 | 13 | 293 | 0.0 | 0.0 | 0.00 | 0.00 | 0.00 | 79 | 1020.8 |
| 20260505124040 | 13 | 293 | 0.0 | 0.0 | 0.00 | 0.00 | 0.00 | 80 | 1020.6 |
| 20260505123536 | 13 | 293 | 0.0 | 0.0 | 0.00 | 0.00 | 0.00 | 80 | 1020.5 |
| 20260505123033 | 13 | 293 | 0.0 | 0.0 | 0.00 | 0.00 | 0.00 | 80 | 1020.5 |
| 20260505122530 | 12 | 293 | 0.0 | 0.0 | 0.00 | 0.00 | 0.00 | 79 | 1020.6 |
| 20260505122027 | 12 | 293 | 0.0 | 0.0 | 0.00 | 0.00 | 0.00 | 79 | 1020.7 |
| 20260505121523 | 12 | 293 | 0.0 | 0.0 | 0.00 | 0.00 | 0.00 | 79 | 1020.6 |
| 20260505121020 | 12 | 293 | 0.0 | 0.0 | 0.00 | 0.00 | 0.00 | 79 | 1020.6 |
| 20260505120516 | 12 | 292 | 0.0 | 0.0 | 0.00 | 0.00 | 0.00 | 79 | 1020.7 |
| 20260505120011 | 12 | 292 | 0.0 | 0.0 | 0.00 | 0.00 | 0.00 | 79 | 1020.4 |
| 20260505115507 | 12 | 292 | 0.0 | 0.0 | 0.00 | 0.00 | 0.00 | 79 | 1020.4 |
| 20260505115005 | 12 | 292 | 0.0 | 0.0 | 0.00 | 0.00 | 0.00 | 79 | 1020.2 |
| 20260505114501 | 12 | 292 | 0.0 | 0.0 | 0.00 | 0.00 | 0.00 | 79 | 1020.1 |
| 20260505113958 | 12 | 292 | 0.0 | 0.0 | 0.00 | 0.00 | 0.00 | 79 | 1020.0 |
| 20260505113454 | 12 | 292 | 0.0 | 0.0 | 0.00 | 0.00 | 0.00 | 79 | 1020.2 |
| 20260505112950 | 12 | 292 | 0.0 | 0.0 | 0.00 | 0.00 | 0.00 | 79 | 1020.2 |